Dewpoint
47 47 46 46 45 45 45 45 44 43 43 41 41 41 41 40 37 30 28 28 19 16 18 23 20 13 15 10 9 6 7 9 12 15 13 10 12 13 11 10 12 11 11 13 16 17 12 19 21 22 21 12 12 11
48 47 47 47 47 46 45 46 45 44 44 43 41 41 41 41 39 31 26 30 27 17 19 27 25 23 19 16 5 8 7 4 9 8 8 11 10 10 9 -3 8 7 11 13 16 16 18 19 19 19 13 13 10 10
49 49 48 48 48 48 47 46 46 45 45 44 43 42 41 41 40 34 29 28 25 19 20 24 23 27 25 21 17 12 10 12 15 15 10 11 7 11 3 4 7 10 7 10 9 9 13 17 17 15 11 9 8 11
49 49 49 49 48 48 48 48 47 46 46 45 44 42 41 41 40 34 30 28 20 18 14 19 22 23 17 21 17 14 13 19 18 16 14 12 7 12 10 9 8 9 10 10 10 10 9 9 11 15 12 6 7 10
49 49 49 49 49 49 48 48 48 47 47 45 44 43 42 41 41 35 30 28 26 21 17 16 21 17 10 13 16 17 18 20 19 15 14 10 12 12 9 10 10 10 8 7 4 7 6 4 8 11 12 7 6 5
43 45 49 49 49 49 49 48 48 48 47 46 45 44 42 42 37 33 26 28 28 23 17 22 18 13 8 11 15 17 20 19 17 15 14 13 12 14 11 10 11 11 10 10 8 7 7 8 8 9 11 8 7 5
37 39 42 43 48 49 49 49 48 48 48 47 46 44 42 42 35 29 23 28 29 22 16 21 18 12 10 12 15 15 19 20 20 17 15 17 15 16 12 8 10 10 10 10 6 7 8 7 7 8 9 8 11 5
37 37 37 38 41 42 48 48 48 48 48 47 46 44 41 41 35 32 32 31 26 20 19 21 17 12 11 13 14 17 17 20 20 18 18 16 12 10 10 10 12 10 8 8 8 7 5 1 5 6 5 7 7 4
37 37 36 37 37 38 40 43 48 48 48 47 46 43 41 34 31 29 34 25 21 23 23 17 15 14 10 11 12 15 18 13 16 14 15 14 11 8 8 9 12 12 10 10 6 4 4 6 5 6 5 6 7 5
39 38 37 37 36 37 37 39 41 48 48 47 40 32 28 30 33 29 26 24 23 23 18 17 16 12 7 10 9 11 14 10 7 9 16 13 11 12 12 16 13 9 9 7 8 8 6 7 6 6 6 6 7 7
39 39 39 39 39 37 36 37 39 41 47 33 30 25 30 31 26 25 22 18 17 14 15 14 16 12 7 4 4 9 7 9 5 8 11 9 9 11 15 14 10 10 9 8 10 9 9 9 8 6 5 6 5 6
38 38 38 38 38 38 36 36 36 39 35 33 29 29 28 24 23 20 16 14 13 14 13 13 12 6 4 11 3 10 7 9 6 13 9 7 9 15 12 12 8 6 6 7 8 8 8 8 7 7 7 6 5 6
38 38 38 37 37 36 36 35 37 38 33 32 27 22 22 20 17 15 11 11 11 12 11 9 6 3 8 12 10 9 7 7 11 7 5 7 10 13 12 8 6 6 6 6 7 7 7 6 4 5 5 5 6 5
38 38 38 38 36 36 35 35 37 35 34 28 23 16 19 15 15 15 13 12 14 12 10 8 5 4 9 7 10 10 9 8 4 3 6 6 9 12 11 7 7 7 5 5 6 6 6 5 5 3 2 3 2 3
39 39 39 38 37 36 35 35 37 37 31 26 25 17 18 17 14 15 15 14 12 11 8 7 8 9 9 11 11 7 4 3 4 6 6 10 11 10 10 9 9 8 7 5 4 5 5 3 -0 -1 0 1 2 2
41 40 39 39 37 36 36 35 37 35 30 28 26 22 19 18 15 15 13 12 12 10 17 16 12 13 12 12 8 6 5 5 7 7 11 11 11 10 10 10 10 9 8 7 5 4 4 3 2 1 1 1 1 2
41 37 39 39 37 37 36 35 32 29 27 25 23 23 19 17 16 16 15 13 13 13 14 16 13 12 13 10 8 8 8 9 10 12 11 11 10 9 9 8 8 8 8 9 8 6 4 2 1 1 1 2 2 3
38 38 38 38 38 37 34 32 30 27 23 24 21 21 20 18 17 17 16 15 16 19 20 18 16 13 11 9 8 10 10 11 12 11 9 9 8 7 7 7 8 8 8 8 8 6 3 2 2 2 2 2 3 3
37 38 38 37 37 32 28 28 30 23 20 20 20 20 20 19 20 18 17 19 22 23 21 19 17 14 13 8 7 7 7 7 7 7 7 7 6 6 6 6 6 6 7 7 7 7 6 4 3 3 4 5 4 4
39 39 37 38 36 30 26 24 29 21 19 17 18 15 15 15 18 19 19 21 21 21 17 14 8 4 4 4 6 6 5 5 5 5 6 6 6 6 5 4 5 5 6 6 6 8 7 6 5 4 4 5 5 5
37 38 37 30 24 20 17 17 16 17 15 12 13 13 12 13 12 13 11 11 8 3 2 2 2 3 5 4 6 5 2 3 2 2 2 2 5 4 4 4 4 3 4 4 5 5 5 6 7 7 7 8 10 10
32 31 27 27 20 18 15 15 14 14 12 12 11 11 9 8 7 5 8 2 -1 -1 1 2 2 3 2 1 1 1 1 2 2 2 4 3 1 1 2 3 2 1 2 2 3 3 4 5 7 9 9 8 10 11
28 26 22 21 17 15 12 17 13 13 12 9 10 6 4 4 5 8 -0 -0 -1 1 2 1 2 3 1 2 2 1 0 -1 -1 -1 -1 -1 -0 1 0 1 1 -0 -0 -0 1 3 4 7 7 9 9 10 9 8
19 15 14 14 14 10 13 11 13 11 10 7 5 2 2 3 7 2 -3 -2 -0 2 1 1 3 1 2 1 -1 -1 -1 -2 -3 -3 -2 -2 -2 -2 -3 -1 -1 -0 -0 -0 0 1 1 3 6 5 7 7 7 6
12 7 9 7 10 11 9 8 8 6 3 4 2 1 1 5 0 -2 -3 -2 -0 -1 -0 1 0 0 -1 -1 -2 -2 -3 -2 -5 -5 -4 -3 -4 -4 -4 -3 -2 -1 -1 -2 -2 -2 -2 -1 1 2 3 4 5 5
3 3 3 2 4 6 5 4 3 3 2 -0 -1 1 3 2 -1 -4 -3 -0 -0 -0 -1 -1 -2 -2 -3 -3 -4 -3 -3 -5 -7 -6 -5 -4 -4 -5 -7 -7 -5 -3 -2 -2 -3 -4 -3 -3 -2 -1 1 2 5 5
-0 -1 3 5 2 5 4 4 4 1 -1 -1 0 1 2 -2 -4 -3 -1 -0 -1 -1 -2 -2 -3 -3 -3 -4 -4 -4 -6 -9 -8 -6 -6 -7 -7 -6 -6 -6 -5 -4 -2 -2 -3 -4 -4 -3 -3 -1 -0 1 2 3
-1 -2 -2 -2 -3 -3 -2 -3 -4 -6 -4 -4 -0 -3 -2 -3 -3 -2 -2 -4 -6 -6 -6 -8 -8 -7 -7 -8 -9 -11 -10 -13 -13 -12 -11 -11 -10 -9 -6 -4 -3 0 2 -2 0 1 -0 -1 -1 -1 -1 0 1 2
-3 -4 -3 -6 -6 -8 -11 -8 -7 -7 -6 -6 -3 -5 -5 -4 -4 -5 -5 -8 -12 -7 -6 -6 -7 -11 -11 -12 -14 -14 -15 -14 -11 -11 -11 -11 -10 -9 -7 -7 -9 -8 -8 -6 0 3 4 4 3 2 2 2 1 1
-6 -7 -8 -9 -9 -10 -11 -11 -9 -8 -6 -8 -7 -6 -7 -6 -7 -13 -10 -8 -6 -7 -9 -9 -12 -11 -11 -12 -11 -11 -12 -13 -13 -10 -10 -10 -10 -10 -10 -9 -9 -9 -9 -7 -7 -6 0 -0 0 -2 -2 -1 -1 -0
-11 -8 -7 -8 -7 -8 -11 -14 -14 -10 -12 -10 -13 -9 -9 -9 -8 -10 -9 -11 -11 -10 -8 -7 -9 -13 -10 -10 -10 -9 -8 -10 -13 -12 -12 -10 -10 -9 -8 -8 -8 -8 -8 -8 -7 -7 -6 -5 -5 -4 -4 -3 -2 2
-12 -11 -8 -6 -6 -13 -17 -15 -13 -11 -11 -7 -9 -11 -8 -7 -6 -6 -10 -11 -8 -6 -3 -6 -9 -7 -8 -7 -8 -9 -4 -4 -5 -6 -7 -7 -7 -7 -7 -6 -6 -7 -7 -6 -6 -6 -6 -6 -6 -6 -5 -4 -4 -3
-17 -17 -16 -13 -11 -10 -14 -16 -12 -11 -13 -13 -14 -16 -15 -11 -7 -8 -11 -12 -8 -8 -8 -8 -10 -8 -6 -6 -6 -7 -5 -6 -5 -1 -0 1 2 3 4 4 -1 -3 -3 -4 -4 -4 -4 -4 -5 -5 -6 -6 -5 -4
Wind_Speed
29 29 29 28 27 25 23 23 21 20 18 14 12 10 7 4 5 3 2 1 0 2 4 9 9 6 5 4 2 4 1 0 2 3 4 4 5 6 3 3 5 11 12 8 5 6 12 12 7 10 3 2 5 5
31 31 30 29 29 29 27 26 24 22 20 19 16 14 11 8 7 5 2 1 1 3 2 3 6 5 5 9 8 5 2 4 5 3 4 3 4 4 4 4 2 7 8 4 14 9 2 15 4 4 6 6 8 11
33 33 32 32 32 32 31 30 28 25 22 20 19 17 15 12 10 5 4 6 2 1 3 2 7 5 3 5 4 6 4 5 5 3 5 2 7 7 6 10 4 7 4 6 3 5 18 15 13 7 10 6 9 10
34 33 33 33 33 33 32 31 30 29 26 24 22 19 17 14 12 9 4 7 3 3 4 3 2 2 1 5 3 2 7 6 8 4 4 4 5 5 3 2 5 2 9 6 11 19 14 19 19 13 12 9 11 10
33 34 33 33 33 33 33 32 31 31 29 27 24 21 18 16 15 8 3 7 3 3 4 3 1 0 1 6 7 7 11 8 4 5 5 7 4 6 1 1 10 13 12 13 14 4 2 2 2 11 19 18 17 17
23 21 29 33 33 32 32 31 31 31 30 29 26 23 20 18 18 5 4 4 7 3 1 5 2 2 3 6 7 7 8 3 3 4 5 4 2 6 6 7 12 17 11 10 5 2 7 6 6 6 18 17 16 16
24 23 26 21 25 32 32 31 31 30 30 30 29 26 22 22 12 5 3 4 11 3 1 6 5 2 4 4 2 3 2 2 3 3 5 4 5 7 5 14 6 10 16 14 9 4 8 7 4 6 9 13 12 9
27 26 26 23 24 19 26 31 31 32 34 34 33 29 25 26 16 6 5 15 8 6 1 5 4 3 6 4 4 2 4 3 5 4 2 5 5 3 12 23 15 8 5 7 16 16 3 2 2 6 5 13 14 16
29 29 27 26 25 22 24 21 30 28 28 31 32 28 12 6 8 9 15 10 5 3 5 7 6 4 5 3 4 2 2 5 2 5 5 10 7 14 20 22 15 14 10 5 4 8 6 8 5 9 10 14 18 19
30 29 29 28 26 24 22 22 20 25 29 31 20 7 8 8 36 22 4 5 5 5 4 9 4 8 8 4 4 5 2 5 5 8 6 7 11 24 16 13 7 11 11 12 6 6 9 12 15 16 22 18 19 19
31 30 29 28 26 24 22 19 19 18 24 4 8 5 12 23 5 3 7 8 7 6 9 8 16 14 7 7 8 7 5 5 3 4 7 5 9 7 5 7 6 9 11 18 14 4 5 7 9 17 19 20 18 17
35 33 32 30 28 26 22 20 18 17 8 10 21 14 6 6 5 8 10 5 9 10 11 12 8 6 6 3 5 6 5 4 7 7 4 6 9 3 2 2 3 4 7 10 14 18 14 11 11 12 15 19 22 20
36 35 33 31 29 26 23 20 16 19 32 7 5 9 12 7 10 13 15 9 9 11 13 10 9 8 4 2 4 5 7 9 6 5 6 10 1 2 5 5 3 4 3 4 5 6 10 13 8 11 14 12 14 17
37 36 33 31 29 27 23 17 16 27 7 6 10 9 12 10 14 15 17 14 8 11 23 18 10 6 5 6 5 6 4 4 4 5 9 5 6 4 4 3 6 7 5 3 3 4 7 8 9 8 11 9 13 17
39 37 33 30 30 27 23 20 24 14 7 7 8 9 15 9 3 7 10 13 6 19 22 13 7 5 5 5 6 5 4 6 8 9 4 5 5 5 6 6 8 9 9 8 6 6 6 5 5 6 6 8 12 12
41 35 32 29 29 25 23 22 18 10 5 6 7 5 2 14 8 10 10 11 8 20 9 6 6 6 6 7 7 12 7 10 5 4 6 7 5 6 6 7 7 7 7 7 6 5 6 6 8 6 3 6 10 13
38 19 25 28 26 24 24 7 7 8 8 5 6 4 8 0 11 8 9 12 17 16 8 6 10 8 8 5 6 9 9 3 8 9 7 7 6 6 7 8 8 9 9 9 8 7 6 5 3 5 10 8 11 12
20 19 28 28 23 10 5 5 7 9 7 4 5 7 7 4 15 11 9 21 12 8 11 7 8 7 9 8 7 5 3 4 8 8 7 6 7 7 7 8 8 9 9 9 8 7 7 5 7 11 11 10 8 10
25 25 31 30 15 7 6 5 5 8 3 3 6 6 5 7 5 12 16 15 7 6 13 8 5 7 6 3 4 5 5 4 3 3 3 6 8 8 9 9 9 10 12 12 11 10 9 7 9 9 9 7 10 10
33 32 32 28 12 4 4 3 3 6 5 3 5 5 6 6 2 12 17 9 6 7 3 2 2 3 3 4 5 7 6 4 3 2 2 4 8 8 10 10 10 11 10 10 10 9 8 8 7 8 9 9 9 11
16 20 21 10 5 9 6 4 6 4 5 6 4 4 5 5 6 5 6 6 7 5 4 4 6 7 9 9 8 9 8 6 4 2 1 4 7 7 7 8 9 9 8 9 10 11 11 9 10 8 8 9 9 10
8 18 6 7 6 4 6 7 6 3 5 5 4 5 6 5 4 4 3 9 5 4 3 3 4 6 8 8 8 8 6 5 4 2 5 6 6 6 7 8 8 9 9 8 9 10 11 12 11 9 9 9 8 7
10 9 7 7 5 5 3 3 4 4 4 3 3 5 5 4 3 2 6 4 4 5 4 4 5 7 11 8 8 8 8 8 6 5 4 4 5 3 6 6 6 5 9 10 10 9 11 13 12 11 7 5 4 5
11 8 7 6 8 4 2 4 4 4 4 5 5 5 3 3 2 5 5 4 3 3 5 6 6 8 6 5 6 5 5 6 6 4 2 4 6 8 7 6 4 5 6 7 9 11 12 12 12 11 7 4 4 5
9 10 7 7 7 4 4 3 4 5 4 4 4 4 2 1 4 4 3 3 3 4 4 5 6 6 5 4 3 4 4 4 7 9 4 3 3 9 9 7 3 2 8 12 12 13 14 13 12 11 9 6 5 6
10 9 7 9 7 5 5 3 4 4 4 4 4 2 1 3 4 4 2 3 2 2 3 4 4 5 6 4 3 4 4 3 5 7 7 6 5 8 10 9 7 5 4 8 7 11 13 12 11 12 11 10 10 7
8 8 5 6 4 4 5 6 6 8 6 4 3 2 2 4 4 2 2 3 3 3 3 4 4 4 2 3 4 3 7 7 7 10 14 15 14 12 11 10 8 6 10 6 8 9 10 12 13 12 12 11 9 6
5 9 8 11 8 10 5 6 6 6 4 6 2 4 3 3 3 2 2 2 4 4 5 4 3 2 4 5 7 9 6 7 14 13 9 6 4 7 8 8 7 12 12 11 12 10 9 11 13 14 13 13 13 8
6 10 5 9 6 8 9 6 4 4 6 4 2 3 3 3 1 2 2 2 3 4 5 4 1 7 4 6 3 3 8 8 11 11 12 13 10 7 2 3 11 14 12 12 14 13 13 13 15 14 13 13 13 10
7 8 4 6 7 7 5 4 3 5 5 3 2 3 3 3 3 2 3 3 3 4 3 2 5 9 8 10 13 14 6 5 7 5 9 14 11 10 15 18 17 16 12 12 14 16 15 10 9 9 7 6 6 7
7 4 6 7 5 3 5 7 4 2 4 5 5 5 4 1 2 4 1 1 4 3 2 4 7 5 7 11 12 15 18 6 10 12 14 16 17 17 17 16 15 14 14 14 15 15 15 14 13 11 10 9 9 9
8 8 4 4 2 4 6 4 4 5 7 5 7 6 4 3 4 4 4 1 0 3 5 5 9 12 9 12 14 14 18 17 16 15 17 19 19 19 19 18 16 14 16 17 16 15 15 15 15 14 14 13 12 12
4 4 5 3 3 3 8 5 6 3 5 4 5 3 2 2 3 2 2 5 5 5 13 15 12 13 16 17 16 16 17 14 17 22 26 27 27 24 19 13 14 16 18 18 18 16 16 16 16 17 17 16 15 14
Wind_Direction
244 242 242 242 240 241 247 251 252 249 247 241 236 239 238 197 131 122 120 125 268 238 219 197 184 158 147 173 247 180 117 71 112 204 217 228 211 211 215 214 195 186 176 193 162 209 268 157 133 190 173 132 182 171
247 247 245 243 240 240 236 234 237 239 239 237 230 228 224 217 167 137 171 174 151 189 258 209 223 212 194 177 152 179 191 180 194 142 210 161 218 185 210 250 205 231 206 206 202 221 195 198 209 199 175 156 182 182
244 244 243 243 242 239 237 233 230 230 230 232 232 228 221 213 189 167 160 155 131 248 261 227 230 211 152 192 186 183 225 173 175 148 158 188 242 162 215 238 225 231 191 246 307 237 235 215 217 204 187 190 176 171
245 244 244 243 242 242 239 235 231 227 222 221 226 226 221 214 188 158 168 176 132 117 259 240 116 168 121 169 165 118 136 123 116 144 165 204 231 191 237 267 241 224 163 214 256 277 266 255 236 218 196 172 162 159
250 247 246 244 243 241 240 237 232 227 219 216 214 214 217 210 189 141 149 204 227 227 243 254 149 180 152 170 153 146 154 143 160 169 183 213 186 167 138 223 243 190 203 201 252 236 235 270 262 223 198 192 181 167
280 298 259 246 245 242 238 237 236 228 218 211 204 200 205 199 140 127 273 206 190 175 273 287 95 130 110 140 142 153 164 134 154 184 204 222 196 173 187 228 244 208 214 214 243 217 221 272 280 228 205 191 182 181
277 282 270 290 265 242 240 236 234 229 216 207 196 193 194 179 148 181 216 151 157 136 93 301 259 146 118 114 105 133 144 209 196 213 227 191 193 198 211 240 225 217 229 226 219 185 269 227 258 206 196 189 173 157
271 273 272 282 270 293 259 236 231 225 219 205 187 186 185 163 125 150 115 132 132 98 110 244 248 223 175 152 174 166 166 193 227 247 184 193 157 198 246 239 233 223 209 239 226 214 224 302 266 175 156 159 174 184
261 263 265 268 269 280 268 295 234 227 216 199 177 169 158 155 151 154 130 108 67 170 228 195 210 245 152 125 124 127 157 212 243 235 236 167 190 227 228 230 215 214 201 201 126 187 212 234 239 195 183 188 197 200
256 256 256 257 261 264 274 273 289 228 212 181 129 150 171 154 121 116 70 151 185 217 221 224 199 206 152 159 150 141 179 228 229 233 156 222 249 255 252 223 207 179 189 158 176 218 214 233 222 210 210 206 208 207
253 251 250 251 250 252 258 266 271 288 187 107 140 108 117 131 98 132 183 189 175 230 207 213 196 192 201 157 171 198 202 190 246 217 197 242 260 248 169 199 206 212 210 210 216 177 189 208 213 217 220 219 216 209
250 248 246 245 245 247 244 255 258 255 160 159 114 108 122 150 148 174 195 165 202 220 179 167 168 128 158 156 143 187 190 157 243 149 218 257 254 168 180 241 272 229 210 220 220 225 220 215 215 215 221 216 214 214
249 247 244 242 240 241 237 244 248 142 120 129 94 141 152 177 185 192 188 206 209 180 168 154 134 140 126 156 124 159 185 218 130 195 237 240 209 65 0 354 24 12 329 299 296 263 229 218 207 210 222 219 208 206
245 241 237 236 234 234 224 230 212 157 162 192 160 175 182 182 213 197 194 170 187 143 142 130 123 145 144 148 151 180 173 135 219 235 230 231 168 107 48 31 42 27 21 358 305 270 246 239 246 246 235 220 204 208
242 239 233 230 229 226 213 213 186 172 175 211 191 205 200 195 154 173 136 119 97 141 132 115 98 130 122 150 180 121 159 235 221 235 240 131 111 98 62 46 37 29 20 17 1 340 307 273 265 278 250 229 214 198
234 231 225 217 222 216 206 208 193 171 190 220 222 198 268 180 171 146 138 129 132 142 116 106 128 150 185 166 165 205 183 221 236 213 138 124 87 51 32 32 34 28 25 9 356 336 315 276 253 260 248 216 208 202
223 208 194 201 208 199 200 160 165 181 201 214 216 168 175 198 164 145 137 147 155 149 146 147 168 182 126 180 212 188 214 220 153 126 104 74 59 31 12 6 4 5 6 4 355 345 314 304 240 235 247 236 218 214
188 163 168 179 181 165 132 155 175 188 198 167 176 171 157 125 142 128 119 144 147 174 150 166 126 179 195 189 207 191 128 97 90 93 70 46 50 19 5 353 350 356 357 350 349 338 335 311 277 266 259 253 225 219
133 147 153 164 147 121 144 185 197 161 100 111 106 89 91 97 30 120 132 147 117 119 123 159 185 193 190 131 107 102 89 74 99 53 53 77 39 17 6 360 355 360 355 348 341 328 316 293 274 274 259 221 232 224
133 145 153 144 115 125 117 71 70 98 119 104 72 77 92 92 93 122 127 109 109 126 124 169 102 82 89 87 65 96 85 60 57 43 97 43 15 5 6 358 349 343 342 345 343 333 318 308 291 268 249 238 239 238
95 134 119 76 73 60 79 30 61 64 99 86 91 66 65 34 66 72 63 16 68 50 89 64 93 93 84 82 76 90 66 56 67 68 31 330 357 358 350 352 354 356 357 349 349 343 342 331 316 285 259 263 250 229
80 77 78 54 78 72 75 21 99 97 77 102 77 61 80 69 57 45 44 56 58 41 39 96 105 115 98 80 78 69 54 54 50 17 15 16 352 347 347 347 350 351 352 355 349 340 334 327 317 288 256 261 274 227
56 52 50 37 85 60 52 357 73 28 106 88 87 79 55 64 56 64 74 68 83 38 51 81 93 91 103 95 90 70 50 42 31 13 1 354 337 350 347 348 353 345 348 346 346 346 346 344 342 339 267 274 230 234
41 53 35 42 43 77 61 46 49 69 73 60 59 81 54 67 63 63 77 63 72 62 65 66 112 108 96 79 62 51 36 24 13 0 340 358 8 355 349 348 19 40 10 336 1 2 1 355 354 353 343 284 234 223
73 14 19 23 19 48 59 59 47 64 78 65 89 81 69 15 76 67 74 109 105 90 76 73 73 68 91 83 65 39 29 23 358 340 311 222 340 345 342 347 334 32 23 13 5 358 351 348 346 348 346 330 276 251
71 19 35 10 14 33 24 68 45 66 86 71 60 80 60 80 73 71 80 122 100 92 81 77 87 91 68 50 17 360 343 351 332 306 297 228 248 304 298 299 318 323 358 354 335 327 326 328 333 336 333 335 329 349
52 14 24 33 342 347 76 59 49 57 65 58 42 51 66 72 73 77 107 47 95 89 87 83 81 82 47 336 311 301 316 302 255 272 284 281 271 259 242 248 259 260 303 304 309 303 303 312 315 313 311 309 303 295
51 26 40 355 40 19 61 48 39 38 29 348 316 45 68 55 101 107 83 81 82 91 91 73 71 59 331 295 296 309 319 322 320 308 295 290 287 267 251 243 249 281 310 310 293 294 288 286 286 286 281 281 285 277
38 349 357 32 44 44 39 34 47 33 343 324 48 68 76 58 63 81 88 59 68 97 108 106 31 338 352 342 323 312 310 327 349 349 342 328 329 321 202 244 302 299 292 288 292 302 292 284 269 262 264 264 267 262
10 351 76 49 51 44 20 10 9 339 360 31 42 99 76 58 40 64 91 83 102 119 115 56 359 5 356 353 339 338 317 249 222 241 307 304 294 279 286 290 288 285 279 279 283 294 305 304 312 322 322 309 263 239
336 13 69 51 74 17 326 318 306 324 17 43 30 76 93 46 48 31 55 79 133 106 22 346 349 351 337 333 321 318 316 280 235 245 252 267 273 273 272 270 265 263 265 271 274 276 279 286 286 288 292 290 284 269
24 39 69 80 84 345 14 33 18 39 18 44 24 24 37 62 70 14 11 117 261 287 295 292 320 324 314 299 288 274 276 281 277 272 274 275 273 266 263 262 259 254 257 259 258 258 259 261 267 268 268 274 275 268
53 42 56 72 49 32 5 14 34 53 44 54 37 32 44 63 98 339 324 216 240 286 312 303 281 293 297 298 293 292 301 290 289 299 306 306 304 298 295 275 242 238 243 246 246 243 248 250 255 258 257 256 259 261